Location: Chimay
(50.0486°N, 4.3171°E)
Time: 05:40:42
(UTC+00:00)

Cosmos 2237 Rocket - Pass Details

Date: 08 August 2020
Orbit: 836 x 849 km, 71.0° (Epoch: 19 September)

Event Time Altitude Azimuth Distance (km) Brightness Sun altitude
Rises 22:34:37 0° 333° (NNW) 3,415 6.8 -22.2°
Reaches altitude 10° 22:37:44 10° 349° (N) 2,474 5.7 -22.3°
Maximum altitude 22:41:56 21° 37° (NE) 1,825 4.3 -22.6°
Drops below altitude 10° 22:46:07 10° 85° (E) 2,460 4.5 -22.8°
Enters shadow 22:47:03 - 92° (E) 2,725 4.7 -22.8°
